Time,TemperatureF,DewpointF,PressureIn,WindDirection,WindDirectionDegrees,WindSpeedMPH,WindSpeedGustMPH,Humidity,HourlyPrecipIn,Conditions,Clouds,dailyrainin,SoftwareType,DateUTC
2013-01-16 00:11:00,29.4,28.0,30.12,ENE,70,1.0,2.0,96,0.00,,,0.00,weatherlink.com 1.10,2013-01-16 05:11:00,
2013-01-16 00:26:00,29.3,28.0,30.11,ENE,60,0.0,2.0,96,0.00,,,0.00,weatherlink.com 1.10,2013-01-16 05:26:00,
2013-01-16 00:42:00,29.4,28.0,30.11,ESE,102,0.0,1.0,96,0.00,,,0.00,weatherlink.com 1.10,2013-01-16 05:42:00,
2013-01-16 00:57:00,29.4,28.0,30.11,ESE,114,0.0,2.0,96,0.00,,,0.00,weatherlink.com 1.10,2013-01-16 05:57:00,
2013-01-16 01:12:00,29.4,28.0,30.10,ESE,112,0.0,2.0,96,0.00,,,0.00,weatherlink.com 1.10,2013-01-16 06:12:00,
2013-01-16 01:27:00,29.4,28.0,30.10,East,101,0.0,2.0,96,0.00,,,0.00,weatherlink.com 1.10,2013-01-16 06:27:00,
2013-01-16 01:42:00,29.3,28.0,30.09,East,101,0.0,0.0,96,0.00,,,0.00,weatherlink.com 1.10,2013-01-16 06:42:00,
2013-01-16 01:57:00,29.3,28.0,30.08,NE,56,1.0,2.0,96,0.00,,,0.00,weatherlink.com 1.10,2013-01-16 06:57:00,
2013-01-16 02:27:00,29.1,28.0,30.07,WNW,302,0.0,1.0,97,0.00,,,0.00,weatherlink.com 1.10,2013-01-16 07:27:00,
2013-01-16 02:42:00,29.0,28.0,30.07,WNW,302,0.0,1.0,97,0.00,,,0.00,weatherlink.com 1.10,2013-01-16 07:42:00,
2013-01-16 02:57:00,29.0,28.0,30.08,WNW,302,0.0,0.0,97,0.00,,,0.00,weatherlink.com 1.10,2013-01-16 07:57:00,
2013-01-16 03:12:00,29.1,28.0,30.06,ENE,60,0.0,1.0,97,0.00,,,0.00,weatherlink.com 1.10,2013-01-16 08:12:00,
2013-01-16 03:27:00,29.0,28.0,30.06,ENE,60,0.0,0.0,97,0.00,,,0.00,weatherlink.com 1.10,2013-01-16 08:27:00,
2013-01-16 03:42:00,29.0,28.0,30.06,ENE,60,0.0,1.0,97,0.00,,,0.00,weatherlink.com 1.10,2013-01-16 08:42:00,
2013-01-16 04:12:00,28.9,28.0,30.03,ENE,77,0.0,2.0,97,0.00,,,0.00,weatherlink.com 1.10,2013-01-16 09:12:00,
2013-01-16 04:27:00,28.9,28.0,30.03,NE,56,1.0,2.0,97,0.00,,,0.00,weatherlink.com 1.10,2013-01-16 09:27:00,
2013-01-16 04:42:00,28.9,28.0,30.03,East,82,0.0,2.0,97,0.00,,,0.00,weatherlink.com 1.10,2013-01-16 09:42:00,
2013-01-16 04:57:00,28.9,28.0,30.02,ESE,104,0.0,1.0,97,0.00,,,0.00,weatherlink.com 1.10,2013-01-16 09:57:00,
2013-01-16 05:12:00,28.9,28.0,30.03,NNW,328,0.0,0.0,97,0.00,,,0.00,weatherlink.com 1.10,2013-01-16 10:12:00,
2013-01-16 05:27:00,28.9,28.0,30.02,NNW,328,0.0,0.0,97,0.00,,,0.00,weatherlink.com 1.10,2013-01-16 10:27:00,
2013-01-16 05:42:00,28.8,28.0,30.01,NNW,327,0.0,0.0,97,0.00,,,0.00,weatherlink.com 1.10,2013-01-16 10:42:00,
2013-01-16 05:57:00,28.9,28.0,29.98,ESE,118,4.0,4.0,96,0.00,,,0.00,weatherlink.com 1.10,2013-01-16 10:57:00,
2013-01-16 06:12:00,28.9,28.0,30.00,SE,136,1.0,5.0,96,0.00,,,0.00,weatherlink.com 1.10,2013-01-16 11:12:00,
2013-01-16 06:27:00,29.0,28.0,29.98,ENE,71,2.0,4.0,96,0.00,,,0.00,weatherlink.com 1.10,2013-01-16 11:27:00,
2013-01-16 06:42:00,29.0,28.0,29.99,SSE,150,0.0,1.0,96,0.00,,,0.00,weatherlink.com 1.10,2013-01-16 11:42:00,
2013-01-16 06:57:00,29.0,28.0,29.98,East,101,1.0,3.0,96,0.00,,,0.00,weatherlink.com 1.10,2013-01-16 11:57:00,
2013-01-16 07:12:00,29.1,28.0,29.97,SW,214,1.0,4.0,96,0.00,,,0.00,weatherlink.com 1.10,2013-01-16 12:12:00,
2013-01-16 07:27:00,29.1,28.0,29.93,SE,128,3.0,5.0,96,0.00,,,0.00,weatherlink.com 1.10,2013-01-16 12:27:00,
2013-01-16 07:42:00,29.1,28.0,29.97,ENE,77,0.0,2.0,96,0.00,,,0.00,weatherlink.com 1.10,2013-01-16 12:42:00,
2013-01-16 07:57:00,29.3,28.0,29.96,ESE,107,1.0,3.0,96,0.00,,,0.00,weatherlink.com 1.10,2013-01-16 12:57:00,
2013-01-16 08:27:00,29.5,29.0,29.97,ENE,78,0.0,1.0,96,0.00,,,0.00,weatherlink.com 1.10,2013-01-16 13:27:00,
2013-01-16 08:42:00,29.6,29.0,29.95,ESE,117,3.0,3.0,96,0.00,,,0.00,weatherlink.com 1.10,2013-01-16 13:42:00,
2013-01-16 08:58:00,29.8,29.0,29.94,East,80,3.0,3.0,96,0.00,,,0.00,weatherlink.com 1.10,2013-01-16 13:58:00,
2013-01-16 09:12:00,29.9,29.0,29.97,NW,326,1.0,3.0,97,0.00,,,0.00,weatherlink.com 1.10,2013-01-16 14:12:00,
2013-01-16 09:27:00,30.1,29.0,29.98,NW,323,0.0,1.0,97,0.00,,,0.00,weatherlink.com 1.10,2013-01-16 14:27:00,
2013-01-16 09:42:00,30.1,29.0,29.94,ESE,108,1.0,3.0,96,0.00,,,0.00,weatherlink.com 1.10,2013-01-16 14:42:00,
2013-01-16 09:57:00,30.2,29.0,29.96,North,10,1.0,1.0,96,0.00,,,0.00,weatherlink.com 1.10,2013-01-16 14:57:00,
2013-01-16 10:12:00,30.3,29.0,29.95,NW,308,0.0,2.0,96,0.00,,,0.00,weatherlink.com 1.10,2013-01-16 15:12:00,
2013-01-16 10:27:00,30.3,29.0,29.93,SE,125,2.0,3.0,96,0.00,,,0.00,weatherlink.com 1.10,2013-01-16 15:27:00,
2013-01-16 10:43:00,30.6,30.0,29.92,North,360,0.0,1.0,97,0.00,,,0.00,weatherlink.com 1.10,2013-01-16 15:43:00,
2013-01-16 10:58:00,30.8,30.0,29.91,East,82,1.0,1.0,97,0.00,,,0.00,weatherlink.com 1.10,2013-01-16 15:58:00,
2013-01-16 11:13:00,30.6,30.0,29.88,ESE,117,0.0,2.0,97,0.00,,,0.00,weatherlink.com 1.10,2013-01-16 16:13:00,
2013-01-16 11:28:00,31.0,30.0,29.90,WNW,283,1.0,2.0,97,0.00,,,0.00,weatherlink.com 1.10,2013-01-16 16:28:00,
2013-01-16 11:43:00,31.0,30.0,29.86,ENE,64,0.0,0.0,97,0.00,,,0.00,weatherlink.com 1.10,2013-01-16 16:43:00,
2013-01-16 11:58:00,31.3,31.0,29.88,ENE,64,0.0,0.0,97,0.00,,,0.00,weatherlink.com 1.10,2013-01-16 16:58:00,
2013-01-16 12:13:00,31.5,31.0,29.90,WNW,293,0.0,0.0,97,0.00,,,0.00,weatherlink.com 1.10,2013-01-16 17:13:00,
2013-01-16 12:28:00,31.9,31.0,29.86,ESE,102,0.0,0.0,97,0.00,,,0.00,weatherlink.com 1.10,2013-01-16 17:28:00,
2013-01-16 12:43:00,32.5,32.0,29.87,ESE,102,0.0,0.0,97,0.00,,,0.00,weatherlink.com 1.10,2013-01-16 17:43:00,
2013-01-16 12:58:00,32.7,32.0,29.85,ESE,104,0.0,1.0,96,0.00,,,0.00,weatherlink.com 1.10,2013-01-16 17:58:00,
2013-01-16 13:13:00,33.2,32.0,29.85,SW,226,0.0,1.0,96,0.00,,,0.00,weatherlink.com 1.10,2013-01-16 18:13:00,
2013-01-16 13:28:00,33.4,32.0,29.85,SW,215,1.0,1.0,95,0.00,,,0.00,weatherlink.com 1.10,2013-01-16 18:28:00,
2013-01-16 13:43:00,33.1,32.0,29.86,SW,217,1.0,1.0,95,0.00,,,0.00,weatherlink.com 1.10,2013-01-16 18:43:00,
2013-01-16 13:58:00,33.1,32.0,29.87,SW,215,0.0,1.0,96,0.00,,,0.00,weatherlink.com 1.10,2013-01-16 18:58:00,
2013-01-16 14:13:00,33.0,32.0,29.86,SE,129,0.0,2.0,96,0.00,,,0.00,weatherlink.com 1.10,2013-01-16 19:13:00,
2013-01-16 14:28:00,33.2,33.0,29.86,SW,221,0.0,1.0,97,0.00,,,0.00,weatherlink.com 1.10,2013-01-16 19:28:00,
2013-01-16 14:43:00,33.2,33.0,29.86,WSW,242,0.0,1.0,97,0.00,,,0.00,weatherlink.com 1.10,2013-01-16 19:43:00,
2013-01-16 14:58:00,33.1,32.0,29.86,WSW,240,0.0,2.0,97,0.00,,,0.00,weatherlink.com 1.10,2013-01-16 19:58:00,
2013-01-16 15:13:00,33.2,33.0,29.87,WSW,238,0.0,2.0,97,0.00,,,0.00,weatherlink.com 1.10,2013-01-16 20:13:00,
2013-01-16 15:28:00,33.3,33.0,29.86,WNW,284,0.0,1.0,97,0.00,,,0.00,weatherlink.com 1.10,2013-01-16 20:28:00,
2013-01-16 15:43:00,33.4,33.0,29.87,SW,225,0.0,1.0,97,0.00,,,0.00,weatherlink.com 1.10,2013-01-16 20:43:00,
2013-01-16 15:58:00,33.2,33.0,29.87,NW,319,0.0,2.0,97,0.00,,,0.00,weatherlink.com 1.10,2013-01-16 20:58:00,
2013-01-16 16:13:00,33.3,33.0,29.88,SW,228,0.0,1.0,98,0.00,,,0.00,weatherlink.com 1.10,2013-01-16 21:13:00,
2013-01-16 16:28:00,33.4,33.0,29.90,SW,221,0.0,1.0,98,0.00,,,0.00,weatherlink.com 1.10,2013-01-16 21:28:00,
2013-01-16 16:43:00,33.7,33.0,29.89,West,267,0.0,1.0,98,0.00,,,0.00,weatherlink.com 1.10,2013-01-16 21:43:00,
2013-01-16 16:58:00,33.7,33.0,29.90,WSW,245,0.0,2.0,98,0.00,,,0.00,weatherlink.com 1.10,2013-01-16 21:58:00,
2013-01-16 17:13:00,33.6,33.0,29.90,SW,215,0.0,1.0,98,0.00,,,0.00,weatherlink.com 1.10,2013-01-16 22:13:00,
2013-01-16 17:28:00,34.0,34.0,29.90,WSW,250,0.0,1.0,98,0.00,,,0.00,weatherlink.com 1.10,2013-01-16 22:28:00,
2013-01-16 17:43:00,34.6,34.0,29.91,SW,231,0.0,5.0,97,0.00,,,0.00,weatherlink.com 1.10,2013-01-16 22:43:00,
2013-01-16 17:58:00,35.1,33.0,29.92,SW,229,1.0,3.0,93,0.00,,,0.00,weatherlink.com 1.10,2013-01-16 22:58:00,
2013-01-16 18:13:00,35.4,33.0,29.92,SW,226,3.0,4.0,90,0.00,,,0.00,weatherlink.com 1.10,2013-01-16 23:13:00,
2013-01-16 18:28:00,35.5,33.0,29.92,West,259,0.0,7.0,89,0.00,,,0.00,weatherlink.com 1.10,2013-01-16 23:28:00,
2013-01-16 18:43:00,35.4,32.0,29.92,WNW,289,3.0,7.0,88,0.00,,,0.00,weatherlink.com 1.10,2013-01-16 23:43:00,
2013-01-16 18:58:00,35.4,32.0,29.93,SW,232,6.0,10.0,88,0.00,,,0.00,weatherlink.com 1.10,2013-01-16 23:58:00,
2013-01-16 19:13:00,35.5,32.0,29.93,WSW,238,1.0,7.0,86,0.00,,,0.00,weatherlink.com 1.10,2013-01-17 00:13:00,
2013-01-16 19:28:00,35.3,32.0,29.94,WNW,287,1.0,6.0,87,0.00,,,0.00,weatherlink.com 1.10,2013-01-17 00:28:00,
2013-01-16 19:43:00,35.4,31.0,29.93,WNW,284,1.0,8.0,85,0.00,,,0.00,weatherlink.com 1.10,2013-01-17 00:43:00,
2013-01-16 19:58:00,35.3,31.0,29.93,WSW,238,1.0,10.0,84,0.00,,,0.00,weatherlink.com 1.10,2013-01-17 00:58:00,
2013-01-16 20:13:00,35.1,31.0,29.94,NW,307,0.0,3.0,85,0.00,,,0.00,weatherlink.com 1.10,2013-01-17 01:13:00,
2013-01-16 20:28:00,34.9,31.0,29.94,WSW,245,1.0,5.0,85,0.00,,,0.00,weatherlink.com 1.10,2013-01-17 01:28:00,
2013-01-16 20:43:00,34.7,31.0,29.93,WSW,256,1.0,6.0,85,0.00,,,0.00,weatherlink.com 1.10,2013-01-17 01:43:00,
2013-01-16 20:59:00,34.4,31.0,29.93,SW,229,2.0,10.0,86,0.00,,,0.00,weatherlink.com 1.10,2013-01-17 01:59:00,
2013-01-16 21:13:00,34.2,30.0,29.94,West,273,2.0,3.0,85,0.00,,,0.00,weatherlink.com 1.10,2013-01-17 02:13:00,
2013-01-16 21:28:00,34.5,30.0,29.94,West,278,2.0,4.0,83,0.00,,,0.00,weatherlink.com 1.10,2013-01-17 02:28:00,
2013-01-16 21:43:00,34.1,30.0,29.93,WNW,291,3.0,4.0,84,0.00,,,0.00,weatherlink.com 1.10,2013-01-17 02:43:00,
2013-01-16 21:58:00,34.2,30.0,29.93,West,274,2.0,8.0,83,0.00,,,0.00,weatherlink.com 1.10,2013-01-17 02:58:00,
2013-01-16 22:13:00,34.1,30.0,29.93,WNW,302,2.0,6.0,83,0.00,,,0.00,weatherlink.com 1.10,2013-01-17 03:13:00,
2013-01-16 22:28:00,34.0,29.0,29.93,SW,231,2.0,8.0,82,0.00,,,0.00,weatherlink.com 1.10,2013-01-17 03:28:00,
2013-01-16 22:43:00,33.9,29.0,29.94,WSW,246,1.0,7.0,82,0.00,,,0.00,weatherlink.com 1.10,2013-01-17 03:43:00,
2013-01-16 22:58:00,33.7,29.0,29.94,WSW,254,2.0,3.0,82,0.00,,,0.00,weatherlink.com 1.10,2013-01-17 03:58:00,
2013-01-16 23:13:00,33.6,29.0,29.94,SW,229,0.0,7.0,82,0.00,,,0.00,weatherlink.com 1.10,2013-01-17 04:13:00,
2013-01-16 23:28:00,33.2,29.0,29.94,SW,235,2.0,4.0,83,0.00,,,0.00,weatherlink.com 1.10,2013-01-17 04:28:00,
2013-01-16 23:43:00,33.3,28.0,29.94,SSW,208,1.0,6.0,82,0.00,,,0.00,weatherlink.com 1.10,2013-01-17 04:43:00,
2013-01-16 23:58:00,33.3,28.0,29.95,West,269,1.0,5.0,81,0.00,,,0.00,weatherlink.com 1.10,2013-01-17 04:58:00,